Miscellaneous Local Product
Issued by NWS Hastings, NE

Home | Current Version | Previous Version | Graphics & Text | Print | Product List | Glossary On
Versions: 1 2 3 4 5 6 7 8 9 10 11 12 13 14 15 16 17 18 19 20 21 22 23 24 25 26 27 28 29 30 31 32 33 34 35 36 37 38 39 40 41 42 43 44 45 46 47 48 49 50
000
AXUS43 KGID 240302
MISGRI

GID CWA HOURLY WEATHER ROUNDUP
NATIONAL WEATHER SERVICE HASTINGS NE
1000 PM CDT SUN JUL 23 2017

NOTE: "FAIR" INDICATES FEW OR NO CLOUDS BELOW 12,000 FEET WITH NO
SIGNIFICANT WEATHER AND/OR OBSTRUCTIONS TO VISIBILITY.

...SOUTH CENTRAL NEBRASKA...

CITY           SKY/WX    TMP DP  RH WIND       PRES   REMARKS
GRAND ISLAND   CLEAR     73  65  75 E5        30.01R
HASTINGS       CLEAR     75  67  76 E7        30.01R
KEARNEY        CLEAR     72  67  84 E7        30.01R
ORD            CLEAR     74  59  59 SE5       29.99R
YORK           CLEAR     72  66  83 E6        30.00R
AURORA         CLEAR     72  69  89 E6        30.00R
LEXINGTON      CLEAR     76  65  69 SE8       30.01R
HOLDREGE       CLEAR     71  66  85 E6        30.02R
HEBRON         CLEAR     76  68  76 NE5       29.99R

...NEBRASKA PANHANDLE...

CITY           SKY/WX    TMP DP  RH WIND       PRES   REMARKS
CHADRON        CLEAR     80  52  37 SE8       29.94R
ALLIANCE       CLEAR     71  48  43 SE8       30.00R
SCOTTSBLUFF    CLEAR     76  54  46 E7        29.99R
SIDNEY         CLOUDY    78  47  33 S12       30.08R

...WESTERN AND NORTH CENTRAL NEBRASKA...

CITY           SKY/WX    TMP DP  RH WIND       PRES   REMARKS
VALENTINE      CLEAR     81  53  37 E12       30.00R
AINSWORTH      CLEAR     72  60  67 E7        30.02R
ONEILL         CLEAR     72  61  69 E9        30.01R
BROKEN BOW     CLEAR     73  61  65 E5        30.01R
IMPERIAL       CLEAR     76  51  41 S8        30.02R
NORTH PLATTE   CLEAR     76  67  73 SE12      30.00R
MCCOOK         CLEAR     78  59  51 E8        30.00R

...EASTERN NEBRASKA...

CITY           SKY/WX    TMP DP  RH WIND       PRES   REMARKS
NORFOLK        CLEAR     73  55  53 NE3       29.99R
SO SIOUX CITY  CLEAR     74  62  66 NE12      29.98R
TEKAMAH        CLEAR     70  63  78 N6        29.97R
COLUMBUS       CLEAR     68  62  81 N6        29.99R
ALBION         CLEAR     72  62  70 NE8       30.00R
OMAHA EPPLEY   PTCLDY    73  62  68 NW5       29.96R
OFFUTT AFB     CLEAR     74  62  66 NE8       29.95R
MILLARD        CLEAR     80  62  54 CALM      29.97R
LINCOLN        CLEAR     76  64  66 CALM      29.98R
NEBRASKA CITY  CLEAR     74  65  74 CALM      29.97R
BEATRICE       CLEAR     74  65  73 NE5       29.98R
FALLS CITY     CLEAR     76  67  73 CALM      29.94R

...NORTHERN KANSAS...

CITY           SKY/WX    TMP DP  RH WIND       PRES   REMARKS
GOODLAND       CLEAR     71  57  61 S9        30.06R
HILL CITY      CLEAR     79  64  60 E6        30.00R
NORTON         CLEAR     73  57  56 E5        30.00R
PHILLIPSBURG   CLEAR     79  66  65 NE6       29.99R
SMITH CENTER   CLEAR     73  66  78 NE8       29.99R
HAYS             N/A     81  60  48 SE7       29.98R
RUSSELL        CLEAR     79  61  53 SE9       29.96R
CONCORDIA      CLEAR     80  71  74 CALM      29.96R
SALINA         CLEAR     80  69  69 S5        29.94R
TOPEKA         MOCLDY    85  78  80 CALM      29.92R HX  96



USA.gov is the U.S. government's official web portal to all federal, state and local government web resources and services.